contact:dominique.lefevre@mio.osupytheas.fr, maurice.libes@osupytheas.fr, didier.mallarino@osupytheas.fr
Project:EMSO http://www.emso-fr.org/EMSO-France
Depth: 2436.0 m
Title:EMSO Ligure Ouest : Data MII capteur AQUADOPP
Date,Latitude,Longitude,X_East,Y_North,Z_Up,Amplitude_X,Amplitude_Y,Amplitude_Z,Batterie,SoundSpeed,Heading,Pitch,Roll,Pressure,TIS,Speed,Direction
, degrees North, degrees East, m.s-1, m.s-1,m.s-1, 1, 1, 1, Volt, m.s-1, degree, degree, degree, dbar, degree_C, m.s-1, degree
2019-12-03T00:04:03,42.805,6.029,-0.028,0.025,-0.045,101.0,114.0,100.0,13.4,1505.3,324.7,-0.7,1.8,2470.307,13.31,0.037,311.8
2019-12-03T00:07:03,42.805,6.029,-0.024,0.027,-0.009,102.0,113.0,102.0,13.4,1505.3,322.8,-0.8,1.8,2470.273,13.32,0.036,318.4
2019-12-03T00:10:03,42.805,6.029,-0.039,0.0,0.0,102.0,114.0,99.0,13.4,1505.3,326.4,-0.7,1.8,2470.285,13.32,0.039,270.0
2019-12-03T00:13:03,42.805,6.029,-0.052,0.042,-0.01,102.0,114.0,98.0,13.4,1505.3,327.3,-0.7,1.8,2470.283,13.33,0.066,308.9
2019-12-03T00:16:03,42.805,6.029,-0.035,0.025,-0.02,101.0,114.0,98.0,13.4,1505.3,323.3,-0.7,1.8,2470.263,13.33,0.043,305.5
2019-12-03T00:19:03,42.805,6.029,-0.021,0.027,-0.01,102.0,115.0,99.0,13.4,1505.3,326.7,-0.7,1.9,2470.233,13.33,0.034,322.1
2019-12-03T00:22:03,42.805,6.029,-0.054,0.048,-0.011,103.0,113.0,100.0,13.4,1505.3,325.0,-0.7,1.8,2470.219,13.33,0.072,311.6
2019-12-03T00:25:03,42.805,6.029,-0.031,0.024,-0.002,103.0,111.0,101.0,13.3,1505.3,327.6,-0.7,1.8,2470.233,13.33,0.039,307.7
2019-12-03T00:28:03,42.805,6.029,-0.014,0.027,-0.017,102.0,112.0,100.0,13.4,1505.3,325.3,-0.7,1.9,2470.212,13.33,0.03,332.6
2019-12-03T00:31:03,42.805,6.029,-0.05,0.043,-0.053,101.0,114.0,100.0,13.4,1505.3,323.2,-0.7,1.9,2470.234,13.33,0.065,310.7
2019-12-03T00:34:03,42.805,6.029,-0.051,0.014,-0.033,100.0,114.0,101.0,13.4,1505.3,325.3,-0.7,1.8,2470.258,13.33,0.052,285.3
2019-12-03T00:37:03,42.805,6.029,-0.065,0.029,-0.012,101.0,115.0,100.0,13.4,1505.3,323.0,-0.7,1.8,2470.272,13.33,0.071,294.0
2019-12-03T00:40:03,42.805,6.029,-0.052,0.037,-0.074,101.0,115.0,100.0,13.4,1505.3,326.4,-0.7,1.8,2470.242,13.33,0.063,305.4
2019-12-03T00:43:03,42.805,6.029,-0.013,0.037,0.0,103.0,114.0,99.0,13.4,1505.3,326.0,-0.8,1.8,2470.22,13.33,0.039,340.6
2019-12-03T00:46:03,42.805,6.029,-0.044,0.024,-0.028,102.0,116.0,98.0,13.3,1505.3,324.5,-0.7,1.9,2470.239,13.33,0.05,298.6
2019-12-03T00:49:03,42.805,6.029,-0.057,0.015,-0.042,103.0,114.0,99.0,13.3,1505.3,325.9,-0.7,1.8,2470.242,13.33,0.058,284.7
2019-12-03T00:52:03,42.805,6.029,-0.037,0.039,-0.039,101.0,115.0,100.0,13.3,1505.3,326.1,-0.7,1.8,2470.276,13.33,0.053,316.5
2019-12-03T00:55:03,42.805,6.029,-0.049,0.031,-0.042,101.0,112.0,99.0,13.4,1505.3,324.6,-0.7,1.8,2470.216,13.33,0.057,302.3
2019-12-03T00:58:03,42.805,6.029,-0.048,0.016,-0.027,102.0,116.0,98.0,13.4,1505.3,323.1,-0.7,1.9,2470.27,13.33,0.05,288.4
2019-12-03T01:01:03,42.805,6.029,-0.062,0.02,-0.024,100.0,115.0,99.0,13.4,1505.3,328.6,-0.7,1.8,2470.232,13.33,0.065,287.9
2019-12-03T01:04:03,42.805,6.029,-0.029,0.033,-0.046,103.0,116.0,101.0,13.4,1505.3,328.7,-0.7,1.8,2470.227,13.33,0.043,318.7
2019-12-03T01:07:04,42.805,6.029,-0.032,0.044,-0.002,102.0,113.0,101.0,13.4,1505.3,328.2,-0.7,1.9,2470.179,13.33,0.054,324.0
2019-12-03T01:10:03,42.805,6.029,-0.053,0.026,-0.008,100.0,115.0,99.0,13.4,1505.3,328.0,-0.7,1.8,2470.219,13.33,0.059,296.1
2019-12-03T01:13:03,42.805,6.029,-0.042,0.036,-0.011,101.0,114.0,99.0,13.4,1505.3,324.7,-0.7,1.8,2470.234,13.33,0.055,310.6
2019-12-03T01:16:03,42.805,6.029,-0.052,0.031,-0.022,100.0,116.0,100.0,13.4,1505.3,325.5,-0.7,1.8,2470.238,13.33,0.06,300.8
2019-12-03T01:19:03,42.805,6.029,-0.015,0.036,-0.028,101.0,115.0,98.0,13.4,1505.3,325.7,-0.7,1.8,2470.242,13.33,0.039,337.4
2019-12-03T01:22:03,42.805,6.029,-0.068,0.025,-0.014,102.0,115.0,99.0,13.3,1505.3,326.8,-0.7,1.8,2470.231,13.33,0.072,290.2
2019-12-03T01:25:03,42.805,6.029,-0.033,0.039,0.0,102.0,114.0,99.0,13.3,1505.3,327.4,-0.7,1.8,2470.234,13.33,0.051,319.8
2019-12-03T01:28:03,42.805,6.029,-0.015,0.052,0.001,102.0,115.0,98.0,13.4,1505.3,324.4,-0.7,1.9,2470.176,13.33,0.054,343.9
2019-12-03T01:31:03,42.805,6.029,-0.045,0.053,-0.034,101.0,114.0,101.0,13.3,1505.3,323.7,-0.7,1.8,2470.227,13.33,0.069,319.7
2019-12-03T01:34:03,42.805,6.029,-0.026,0.043,-0.007,102.0,112.0,101.0,13.4,1505.3,326.9,-0.7,1.8,2470.247,13.33,0.05,328.8
2019-12-03T01:37:03,42.805,6.029,-0.063,0.037,-0.026,100.0,114.0,99.0,13.4,1505.3,324.5,-0.7,1.8,2470.237,13.33,0.073,300.4
2019-12-03T01:40:03,42.805,6.029,-0.054,0.024,-0.016,101.0,114.0,100.0,13.4,1505.3,324.0,-0.7,1.8,2470.211,13.33,0.059,294.0
2019-12-03T01:43:03,42.805,6.029,-0.084,0.035,-0.054,101.0,115.0,99.0,13.4,1505.3,325.7,-0.7,1.8,2470.2,13.33,0.091,292.6
2019-12-03T01:46:03,42.805,6.029,-0.053,0.038,-0.009,102.0,114.0,99.0,13.4,1505.3,325.0,-0.7,1.9,2470.202,13.33,0.065,305.6
2019-12-03T01:49:03,42.805,6.029,-0.076,0.042,-0.015,101.0,113.0,100.0,13.3,1505.3,324.5,-0.7,1.9,2470.205,13.33,0.086,298.9
2019-12-03T01:52:03,42.805,6.029,-0.025,0.03,-0.028,101.0,114.0,99.0,13.3,1505.3,324.3,-0.7,1.8,2470.226,13.33,0.039,320.2
2019-12-03T01:55:03,42.805,6.029,-0.026,0.017,0.004,101.0,112.0,100.0,13.4,1505.3,327.2,-0.7,1.8,2470.184,13.33,0.031,303.2
2019-12-03T01:58:03,42.805,6.029,-0.05,0.013,-0.04,102.0,113.0,99.0,13.4,1505.3,327.6,-0.7,1.8,2470.204,13.33,0.051,284.6
2019-12-03T02:04:03,42.805,6.029,-0.039,0.029,-0.022,101.0,114.0,99.0,13.4,1505.3,323.3,-0.8,1.8,2470.234,13.31,0.048,306.6
2019-12-03T02:07:03,42.805,6.029,-0.03,0.057,0.007,103.0,119.0,98.0,13.3,1505.3,324.7,-0.7,1.8,2470.266,13.32,0.064,332.2
2019-12-03T02:10:03,42.805,6.029,-0.047,0.022,-0.006,101.0,115.0,100.0,13.4,1505.3,327.2,-0.7,1.8,2470.248,13.32,0.051,295.1
2019-12-03T02:13:03,42.805,6.029,-0.025,0.014,-0.035,100.0,116.0,99.0,13.4,1505.3,325.2,-0.7,1.8,2470.187,13.32,0.028,299.3
2019-12-03T02:16:03,42.805,6.029,-0.019,0.033,-0.022,101.0,113.0,99.0,13.4,1505.3,323.9,-0.7,1.9,2470.218,13.33,0.038,330.1
2019-12-03T02:19:03,42.805,6.029,-0.012,0.009,-0.051,99.0,112.0,100.0,13.3,1505.3,326.7,-0.7,1.8,2470.208,13.33,0.015,306.9
2019-12-03T02:22:03,42.805,6.029,-0.032,0.036,0.008,99.0,117.0,99.0,13.4,1505.3,325.9,-0.7,1.8,2470.254,13.33,0.048,318.4
2019-12-03T02:25:03,42.805,6.029,-0.021,0.037,0.002,102.0,116.0,99.0,13.4,1505.3,326.3,-0.7,1.8,2470.239,13.33,0.042,330.4
2019-12-03T02:28:03,42.805,6.029,-0.021,0.036,-0.021,100.0,114.0,100.0,13.3,1505.3,323.4,-0.7,1.8,2470.19,13.33,0.041,329.7
2019-12-03T02:31:03,42.805,6.029,-0.055,0.005,-0.037,101.0,113.0,99.0,13.4,1505.3,325.6,-0.7,1.8,2470.202,13.33,0.055,275.2
2019-12-03T02:34:03,42.805,6.029,-0.025,0.026,-0.049,101.0,114.0,99.0,13.4,1505.3,326.9,-0.7,1.8,2470.168,13.33,0.036,316.1
2019-12-03T02:37:03,42.805,6.029,-0.028,0.012,-0.043,101.0,112.0,100.0,13.4,1505.3,326.3,-0.7,1.8,2470.218,13.33,0.03,293.2
2019-12-03T02:40:03,42.805,6.029,-0.031,0.031,-0.049,101.0,113.0,100.0,13.4,1505.3,325.1,-0.7,1.8,2470.213,13.33,0.043,315.0
2019-12-03T02:43:03,42.805,6.029,-0.04,0.028,-0.033,102.0,113.0,99.0,13.4,1505.3,324.9,-0.7,1.8,2470.189,13.33,0.048,305.0
2019-12-03T02:46:03,42.805,6.029,-0.023,0.038,-0.004,102.0,118.0,99.0,13.3,1505.3,327.1,-0.7,1.8,2470.21,13.33,0.044,328.8
2019-12-03T02:49:03,42.805,6.029,-0.037,0.034,-0.034,102.0,117.0,99.0,13.4,1505.3,324.6,-0.7,1.8,2470.214,13.33,0.05,312.6
2019-12-03T02:52:03,42.805,6.029,-0.059,0.052,-0.015,102.0,113.0,99.0,13.4,1505.3,323.0,-0.7,1.8,2470.201,13.33,0.078,311.4
2019-12-03T02:55:03,42.805,6.029,-0.031,0.029,-0.037,101.0,116.0,99.0,13.3,1505.3,324.0,-0.7,1.8,2470.161,13.33,0.042,313.1
2019-12-03T02:58:03,42.805,6.029,-0.022,0.043,-0.009,100.0,116.0,99.0,13.3,1505.3,328.6,-0.7,1.8,2470.215,13.33,0.048,332.9
2019-12-03T03:04:03,42.805,6.029,-0.021,0.032,-0.046,103.0,113.0,99.0,13.3,1505.3,322.9,-0.8,1.8,2470.232,13.31,0.038,326.7
2019-12-03T03:07:03,42.805,6.029,-0.024,0.035,0.011,100.0,116.0,98.0,13.3,1505.3,327.3,-0.7,1.8,2470.222,13.32,0.042,325.6
2019-12-03T03:10:03,42.805,6.029,-0.032,0.039,0.004,101.0,116.0,99.0,13.3,1505.3,324.7,-0.7,1.8,2470.19,13.32,0.05,320.6
2019-12-03T03:13:03,42.805,6.029,-0.039,0.048,-0.015,101.0,116.0,99.0,13.4,1505.3,324.3,-0.7,1.8,2470.19,13.32,0.061,320.9
2019-12-03T03:16:03,42.805,6.029,-0.021,0.044,-0.013,101.0,115.0,100.0,13.3,1505.3,326.5,-0.7,1.8,2470.196,13.32,0.048,334.5
2019-12-03T03:19:03,42.805,6.029,-0.041,0.014,-0.015,101.0,114.0,99.0,13.4,1505.3,327.6,-0.7,1.8,2470.249,13.33,0.043,288.9
2019-12-03T03:22:03,42.805,6.029,-0.028,0.021,0.037,101.0,113.0,99.0,13.3,1505.3,325.2,-0.7,1.8,2470.208,13.33,0.035,306.9
2019-12-03T03:25:03,42.805,6.029,-0.016,0.001,-0.022,102.0,114.0,100.0,13.4,1505.3,323.0,-0.7,1.8,2470.156,13.33,0.016,273.6
2019-12-03T03:28:03,42.805,6.029,-0.054,0.03,-0.019,101.0,115.0,99.0,13.3,1505.3,324.4,-0.7,1.9,2470.191,13.33,0.061,299.1
2019-12-03T03:31:03,42.805,6.029,-0.054,0.045,-0.038,103.0,116.0,99.0,13.4,1505.3,325.0,-0.7,1.8,2470.207,13.33,0.07,309.8
2019-12-03T03:34:03,42.805,6.029,-0.018,0.057,-0.016,102.0,115.0,99.0,13.4,1505.3,327.6,-0.7,1.8,2470.187,13.33,0.059,342.5
2019-12-03T03:37:03,42.805,6.029,-0.022,0.064,-0.021,102.0,113.0,99.0,13.4,1505.3,327.4,-0.7,1.9,2470.205,13.33,0.067,341.0
2019-12-03T03:40:03,42.805,6.029,-0.052,0.026,-0.05,103.0,115.0,99.0,13.3,1505.3,325.7,-0.7,1.8,2470.224,13.33,0.058,296.6
2019-12-03T03:43:03,42.805,6.029,-0.024,0.026,-0.025,102.0,116.0,99.0,13.3,1505.3,325.7,-0.7,1.8,2470.188,13.33,0.035,317.3
2019-12-03T03:46:03,42.805,6.029,-0.035,0.041,-0.03,101.0,114.0,99.0,13.3,1505.3,324.7,-0.7,1.8,2470.178,13.33,0.053,319.5
2019-12-03T03:49:03,42.805,6.029,-0.029,0.032,0.011,99.0,115.0,99.0,13.3,1505.3,326.0,-0.7,1.8,2470.191,13.33,0.043,317.8
2019-12-03T03:52:03,42.805,6.029,-0.039,0.044,-0.023,101.0,113.0,100.0,13.3,1505.3,325.5,-0.7,1.8,2470.193,13.33,0.058,318.4
2019-12-03T03:55:03,42.805,6.029,-0.044,0.023,-0.03,102.0,114.0,100.0,13.4,1505.3,326.6,-0.7,1.8,2470.198,13.33,0.049,297.6
2019-12-03T03:58:03,42.805,6.029,-0.034,0.037,0.003,101.0,113.0,99.0,13.4,1505.3,323.0,-0.7,1.8,2470.191,13.33,0.05,317.4
2019-12-03T04:04:03,42.805,6.029,-0.062,0.016,-0.032,102.0,116.0,98.0,13.3,1505.3,323.5,-0.7,1.8,2470.258,13.31,0.064,284.5
2019-12-03T04:07:03,42.805,6.029,-0.027,0.038,0.0,102.0,115.0,99.0,13.3,1505.3,326.5,-0.7,1.8,2470.212,13.32,0.046,324.6
2019-12-03T04:10:03,42.805,6.029,-0.039,0.047,0.0,102.0,116.0,99.0,13.3,1505.3,328.6,-0.7,1.9,2470.2,13.32,0.061,320.3
2019-12-03T04:13:03,42.805,6.029,-0.013,0.029,-0.003,100.0,114.0,100.0,13.4,1505.3,323.4,-0.7,1.8,2470.22,13.32,0.031,335.9
2019-12-03T04:16:03,42.805,6.029,-0.045,0.034,-0.014,102.0,113.0,99.0,13.4,1505.3,324.1,-0.7,1.9,2470.197,13.33,0.056,307.1
2019-12-03T04:19:03,42.805,6.029,-0.034,0.012,-0.016,102.0,113.0,100.0,13.4,1505.3,323.7,-0.7,1.8,2470.205,13.33,0.036,289.4
2019-12-03T04:22:03,42.805,6.029,-0.047,0.057,-0.037,101.0,113.0,100.0,13.4,1505.3,326.8,-0.7,1.8,2470.19,13.33,0.073,320.5
2019-12-03T04:25:03,42.805,6.029,-0.038,0.04,-0.008,100.0,115.0,100.0,13.3,1505.3,326.7,-0.7,1.8,2470.209,13.33,0.055,316.5
2019-12-03T04:28:03,42.805,6.029,-0.042,0.041,-0.018,101.0,114.0,100.0,13.4,1505.3,323.0,-0.7,1.8,2470.226,13.33,0.058,314.3
2019-12-03T04:31:03,42.805,6.029,-0.046,0.027,-0.038,101.0,115.0,99.0,13.4,1505.3,326.6,-0.7,1.8,2470.206,13.33,0.053,300.4
2019-12-03T04:34:03,42.805,6.029,-0.046,0.053,0.01,101.0,115.0,99.0,13.4,1505.3,326.4,-0.7,1.8,2470.217,13.33,0.07,319.0
2019-12-03T04:37:03,42.805,6.029,-0.047,0.047,-0.037,99.0,115.0,99.0,13.4,1505.3,328.4,-0.7,1.8,2470.205,13.33,0.066,315.0
2019-12-03T04:40:03,42.805,6.029,-0.068,0.029,-0.054,101.0,115.0,99.0,13.4,1505.3,325.4,-0.7,1.8,2470.167,13.33,0.073,293.1
2019-12-03T04:43:03,42.805,6.029,-0.024,0.05,0.004,100.0,114.0,99.0,13.4,1505.3,324.6,-0.7,1.8,2470.179,13.33,0.055,334.4
2019-12-03T04:46:03,42.805,6.029,-0.04,0.038,0.025,102.0,114.0,100.0,13.4,1505.3,325.3,-0.7,1.8,2470.154,13.33,0.055,313.5
2019-12-03T04:49:03,42.805,6.029,-0.014,0.024,-0.044,101.0,114.0,99.0,13.4,1505.3,327.6,-0.7,1.8,2470.206,13.33,0.027,329.7
2019-12-03T04:52:03,42.805,6.029,-0.007,0.046,0.019,101.0,113.0,99.0,13.4,1505.3,324.9,-0.7,1.8,2470.22,13.33,0.046,351.3
2019-12-03T04:55:03,42.805,6.029,-0.06,0.035,-0.042,101.0,115.0,100.0,13.4,1505.3,325.2,-0.7,1.8,2470.237,13.33,0.069,300.3
2019-12-03T04:58:03,42.805,6.029,-0.043,0.036,0.027,101.0,114.0,98.0,13.4,1505.3,327.2,-0.8,1.8,2470.152,13.33,0.056,309.9
2019-12-03T05:04:03,42.805,6.029,-0.037,0.034,-0.004,101.0,116.0,99.0,13.3,1505.3,325.1,-0.7,1.8,2470.226,13.31,0.05,312.6
2019-12-03T05:07:03,42.805,6.029,-0.068,0.036,-0.058,101.0,115.0,98.0,13.4,1505.3,324.7,-0.7,1.8,2470.231,13.31,0.076,297.9
2019-12-03T05:10:03,42.805,6.029,-0.029,0.034,-0.029,101.0,115.0,100.0,13.4,1505.3,324.8,-0.7,1.8,2470.212,13.32,0.044,319.5
2019-12-03T05:13:03,42.805,6.029,-0.059,0.041,-0.025,101.0,115.0,99.0,13.3,1505.3,328.4,-0.8,1.8,2470.171,13.32,0.071,304.8
2019-12-03T05:16:03,42.805,6.029,-0.041,0.043,-0.001,100.0,115.0,100.0,13.3,1505.3,324.3,-0.6,1.8,2470.208,13.32,0.059,316.4
2019-12-03T05:19:03,42.805,6.029,-0.067,0.033,-0.018,102.0,115.0,101.0,13.4,1505.3,324.7,-0.7,1.8,2470.192,13.33,0.074,296.2
2019-12-03T05:22:03,42.805,6.029,-0.03,0.016,-0.029,102.0,113.0,99.0,13.4,1505.3,326.8,-0.7,1.8,2470.202,13.33,0.034,298.1
2019-12-03T05:25:03,42.805,6.029,-0.041,0.027,-0.059,100.0,115.0,98.0,13.4,1505.3,327.2,-0.7,1.8,2470.197,13.33,0.049,303.4
2019-12-03T05:28:03,42.805,6.029,-0.038,0.024,0.0,100.0,115.0,99.0,13.4,1505.3,326.6,-0.7,1.8,2470.178,13.33,0.044,302.3
2019-12-03T05:31:03,42.805,6.029,-0.05,0.047,-0.035,101.0,116.0,100.0,13.4,1505.3,324.9,-0.7,1.8,2470.21,13.33,0.068,313.2
2019-12-03T05:34:03,42.805,6.029,-0.029,0.043,-0.034,100.0,117.0,99.0,13.4,1505.3,326.3,-0.7,1.8,2470.227,13.33,0.051,326.0
2019-12-03T05:37:03,42.805,6.029,-0.008,0.053,-0.01,101.0,115.0,99.0,13.4,1505.3,324.6,-0.7,1.8,2470.183,13.33,0.053,351.4
2019-12-03T05:40:03,42.805,6.029,-0.048,0.033,-0.014,101.0,112.0,99.0,13.4,1505.3,324.7,-0.7,1.8,2470.184,13.33,0.058,304.5
2019-12-03T05:43:03,42.805,6.029,-0.047,0.046,-0.037,102.0,115.0,99.0,13.4,1505.3,325.6,-0.7,1.8,2470.226,13.33,0.065,314.4
2019-12-03T05:46:03,42.805,6.029,-0.026,0.033,-0.025,100.0,113.0,100.0,13.4,1505.3,324.5,-0.7,1.8,2470.178,13.33,0.042,321.8
2019-12-03T05:49:03,42.805,6.029,-0.029,0.061,0.034,101.0,116.0,100.0,13.4,1505.3,325.6,-0.7,1.8,2470.201,13.33,0.067,334.6
2019-12-03T05:52:03,42.805,6.029,-0.045,0.052,-0.045,101.0,117.0,99.0,13.4,1505.3,327.4,-0.7,1.8,2470.158,13.33,0.068,319.1
2019-12-03T05:55:03,42.805,6.029,-0.036,0.05,-0.013,100.0,115.0,99.0,13.3,1505.3,327.0,-0.7,1.8,2470.188,13.33,0.061,324.2
2019-12-03T05:58:03,42.805,6.029,-0.024,0.041,-0.029,99.0,116.0,99.0,13.3,1505.3,325.9,-0.7,1.8,2470.225,13.33,0.047,329.7
2019-12-03T06:04:03,42.805,6.029,-0.038,0.042,-0.004,101.0,116.0,100.0,13.4,1505.3,325.8,-0.7,1.8,2470.202,13.31,0.056,317.9
2019-12-03T06:07:03,42.805,6.029,-0.03,0.046,-0.018,101.0,114.0,99.0,13.4,1505.3,323.2,-0.8,1.8,2470.201,13.32,0.054,326.9
2019-12-03T06:10:03,42.805,6.029,-0.035,0.04,-0.038,99.0,114.0,100.0,13.4,1505.3,326.5,-0.7,1.8,2470.214,13.32,0.053,318.8
2019-12-03T06:13:03,42.805,6.029,-0.04,0.045,-0.014,101.0,113.0,98.0,13.3,1505.3,328.3,-0.7,1.8,2470.217,13.32,0.06,318.4
2019-12-03T06:16:03,42.805,6.029,-0.044,0.028,-0.022,105.0,117.0,98.0,13.3,1505.3,325.0,-0.7,1.8,2470.219,13.32,0.052,302.5
2019-12-03T06:19:03,42.805,6.029,-0.031,0.028,-0.028,101.0,115.0,99.0,13.4,1505.3,325.1,-0.7,1.9,2470.236,13.33,0.041,312.1
2019-12-03T06:22:03,42.805,6.029,-0.025,0.02,0.0,102.0,112.0,99.0,13.4,1505.3,324.4,-0.7,1.8,2470.248,13.33,0.032,308.7
2019-12-03T06:25:03,42.805,6.029,-0.042,0.024,-0.037,100.0,114.0,100.0,13.4,1505.3,323.7,-0.7,1.8,2470.165,13.33,0.048,299.7
2019-12-03T06:28:03,42.805,6.029,-0.034,0.042,-0.024,101.0,115.0,98.0,13.4,1505.3,325.9,-0.7,1.8,2470.199,13.33,0.054,321.0
2019-12-03T06:31:03,42.805,6.029,-0.063,0.027,-0.033,100.0,114.0,99.0,13.4,1505.3,326.5,-0.7,1.8,2470.174,13.33,0.068,293.2
2019-12-03T06:34:03,42.805,6.029,-0.042,0.05,-0.009,101.0,115.0,99.0,13.3,1505.3,329.0,-0.7,1.8,2470.215,13.33,0.065,320.0
2019-12-03T06:37:03,42.805,6.029,-0.048,0.029,-0.037,102.0,116.0,99.0,13.4,1505.3,325.7,-0.7,1.8,2470.175,13.33,0.056,301.1
2019-12-03T06:40:03,42.805,6.029,-0.049,0.029,-0.026,101.0,115.0,99.0,13.4,1505.3,326.6,-0.7,1.9,2470.185,13.33,0.056,300.6
2019-12-03T06:43:03,42.805,6.029,-0.048,0.022,-0.033,100.0,113.0,99.0,13.4,1505.3,323.2,-0.7,1.8,2470.203,13.33,0.052,294.6
2019-12-03T06:46:03,42.805,6.029,-0.048,0.025,-0.06,100.0,114.0,99.0,13.3,1505.3,326.0,-0.7,1.8,2470.197,13.33,0.054,297.5
2019-12-03T06:49:03,42.805,6.029,-0.074,0.048,-0.002,102.0,115.0,100.0,13.3,1505.3,323.3,-0.8,1.8,2470.182,13.33,0.088,303.0
2019-12-03T06:52:03,42.805,6.029,-0.011,0.033,0.016,101.0,113.0,105.0,13.4,1505.3,327.2,-0.7,1.9,2470.241,13.33,0.034,341.6
2019-12-03T06:55:03,42.805,6.029,-0.055,0.026,-0.029,102.0,115.0,98.0,13.4,1505.3,327.4,-0.7,1.9,2470.197,13.33,0.06,295.3
2019-12-03T06:58:03,42.805,6.029,-0.021,0.015,-0.026,101.0,116.0,99.0,13.4,1505.3,326.6,-0.7,1.9,2470.156,13.33,0.025,305.5
2019-12-03T07:04:03,42.805,6.029,-0.052,0.038,-0.036,102.0,114.0,100.0,13.3,1505.3,325.8,-0.8,1.8,2470.226,13.31,0.064,306.2
2019-12-03T07:07:03,42.805,6.029,-0.049,0.033,0.008,101.0,112.0,99.0,13.3,1505.3,324.8,-0.7,1.9,2470.196,13.31,0.059,304.0
2019-12-03T07:10:03,42.805,6.029,-0.008,0.022,-0.016,103.0,113.0,99.0,13.4,1505.3,325.2,-0.7,1.8,2470.178,13.32,0.023,340.0
2019-12-03T07:13:03,42.805,6.029,-0.043,0.016,-0.039,100.0,115.0,100.0,13.3,1505.3,327.4,-0.7,1.8,2470.215,13.32,0.045,290.4
2019-12-03T07:16:03,42.805,6.029,-0.06,0.016,-0.058,102.0,115.0,99.0,13.4,1505.3,326.6,-0.7,1.9,2470.203,13.33,0.062,284.9
2019-12-03T07:19:03,42.805,6.029,-0.027,0.043,-0.008,102.0,115.0,100.0,13.4,1505.3,328.1,-0.7,1.8,2470.241,13.33,0.05,327.9
2019-12-03T07:22:03,42.805,6.029,-0.022,0.039,0.013,101.0,117.0,99.0,13.4,1505.3,327.4,-0.7,1.8,2470.205,13.33,0.044,330.6
2019-12-03T07:25:03,42.805,6.029,-0.067,0.023,-0.026,100.0,116.0,99.0,13.4,1505.3,324.5,-0.7,1.8,2470.197,13.33,0.07,288.9
2019-12-03T07:28:03,42.805,6.029,-0.041,0.051,-0.005,101.0,117.0,97.0,13.4,1505.3,325.6,-0.7,1.8,2470.266,13.33,0.065,321.2
2019-12-03T07:31:03,42.805,6.029,-0.057,0.02,-0.045,101.0,113.0,98.0,13.4,1505.3,324.4,-0.7,1.9,2470.204,13.33,0.06,289.3
2019-12-03T07:34:03,42.805,6.029,-0.058,0.013,-0.051,101.0,114.0,100.0,13.4,1505.3,324.4,-0.7,1.8,2470.208,13.33,0.059,282.6
2019-12-03T07:37:03,42.805,6.029,-0.057,0.034,-0.016,103.0,113.0,99.0,13.3,1505.3,326.2,-0.7,1.8,2470.209,13.33,0.066,300.8
2019-12-03T07:40:03,42.805,6.029,-0.05,0.028,-0.037,103.0,110.0,99.0,13.4,1505.3,327.0,-0.7,1.8,2470.223,13.33,0.057,299.3
2019-12-03T07:43:03,42.805,6.029,-0.02,0.05,0.02,100.0,118.0,99.0,13.4,1505.3,326.5,-0.7,1.8,2470.243,13.33,0.053,338.2
2019-12-03T07:46:03,42.805,6.029,-0.059,0.03,-0.014,100.0,113.0,98.0,13.4,1505.3,325.0,-0.8,1.8,2470.229,13.33,0.066,296.9
2019-12-03T07:49:03,42.805,6.029,-0.019,0.041,-0.015,100.0,115.0,99.0,13.4,1505.3,326.3,-0.7,1.8,2470.25,13.33,0.045,335.1
2019-12-03T07:52:03,42.805,6.029,-0.033,0.035,-0.007,101.0,114.0,99.0,13.4,1505.3,324.9,-0.7,1.8,2470.229,13.33,0.048,316.7
2019-12-03T07:55:03,42.805,6.029,-0.028,0.028,-0.04,100.0,113.0,100.0,13.4,1505.3,328.0,-0.7,1.8,2470.223,13.33,0.039,315.0
2019-12-03T07:58:03,42.805,6.029,0.002,0.041,0.021,100.0,114.0,100.0,13.3,1505.3,325.1,-0.7,1.8,2470.225,13.33,0.041,2.8
2019-12-03T08:04:03,42.805,6.029,-0.05,0.029,-0.033,100.0,114.0,99.0,13.4,1505.3,326.9,-0.7,1.8,2470.282,13.31,0.057,300.1
2019-12-03T08:07:03,42.805,6.029,-0.035,0.035,-0.027,100.0,115.0,99.0,13.4,1505.3,327.0,-0.8,1.8,2470.254,13.31,0.049,315.0
2019-12-03T08:10:03,42.805,6.029,-0.013,0.053,0.015,100.0,114.0,99.0,13.3,1505.3,326.0,-0.7,1.8,2470.235,13.32,0.054,346.2
2019-12-03T08:13:03,42.805,6.029,-0.068,0.032,-0.015,100.0,115.0,99.0,13.4,1505.3,325.6,-0.8,1.8,2470.315,13.32,0.075,295.2
2019-12-03T08:16:03,42.805,6.029,-0.04,0.037,-0.021,101.0,114.0,98.0,13.3,1505.3,327.5,-0.7,1.8,2470.246,13.33,0.054,312.8
2019-12-03T08:19:03,42.805,6.029,-0.04,0.034,-0.017,100.0,115.0,99.0,13.4,1505.3,325.1,-0.7,1.8,2470.254,13.33,0.052,310.4
2019-12-03T08:22:03,42.805,6.029,-0.069,0.031,-0.017,102.0,114.0,99.0,13.4,1505.3,325.2,-0.7,1.8,2470.272,13.33,0.075,294.2
2019-12-03T08:25:03,42.805,6.029,-0.034,0.03,-0.039,101.0,114.0,99.0,13.4,1505.3,324.2,-0.7,1.9,2470.29,13.33,0.045,311.4
2019-12-03T08:28:03,42.805,6.029,-0.048,0.038,-0.032,100.0,114.0,99.0,13.4,1505.3,323.8,-0.7,1.8,2470.253,13.33,0.061,308.4
2019-12-03T08:31:03,42.805,6.029,-0.047,0.032,-0.019,100.0,114.0,98.0,13.4,1505.3,326.1,-0.7,1.9,2470.229,13.33,0.056,304.2
2019-12-03T08:34:03,42.805,6.029,-0.052,0.031,-0.042,102.0,112.0,100.0,13.4,1505.3,326.8,-0.7,1.9,2470.256,13.33,0.06,300.8
2019-12-03T08:37:03,42.805,6.029,-0.042,0.026,-0.015,102.0,114.0,100.0,13.4,1505.3,328.0,-0.7,1.8,2470.298,13.33,0.049,301.8
2019-12-03T08:40:03,42.805,6.029,-0.036,0.01,-0.003,101.0,114.0,99.0,13.3,1505.3,325.5,-0.8,1.8,2470.2,13.33,0.037,285.5
2019-12-03T08:43:03,42.805,6.029,-0.039,0.03,-0.041,102.0,115.0,98.0,13.3,1505.3,327.9,-0.7,1.8,2470.288,13.33,0.049,307.6
2019-12-03T08:46:03,42.805,6.029,-0.043,0.026,-0.018,101.0,113.0,100.0,13.3,1505.3,324.3,-0.7,1.9,2470.256,13.33,0.05,301.2
2019-12-03T08:49:03,42.805,6.029,-0.034,0.031,-0.053,101.0,111.0,99.0,13.3,1505.3,324.7,-0.7,1.8,2470.295,13.33,0.046,312.4
2019-12-03T08:52:03,42.805,6.029,-0.029,0.033,-0.021,99.0,114.0,100.0,13.3,1505.3,328.0,-0.7,1.8,2470.302,13.33,0.043,318.7
2019-12-03T08:55:03,42.805,6.029,-0.008,0.026,0.008,101.0,113.0,100.0,13.4,1505.3,324.8,-0.7,1.8,2470.271,13.33,0.027,342.9
2019-12-03T08:58:03,42.805,6.029,-0.01,0.025,-0.02,101.0,113.0,99.0,13.3,1505.3,324.8,-0.8,1.8,2470.283,13.33,0.026,338.2
2019-12-03T09:04:03,42.805,6.029,-0.047,0.027,0.005,100.0,116.0,99.0,13.4,1505.3,326.0,-0.8,1.8,2470.383,13.31,0.054,299.9
2019-12-03T09:07:03,42.805,6.029,-0.047,0.037,0.001,100.0,114.0,100.0,13.4,1505.3,325.4,-0.7,1.8,2470.307,13.31,0.059,308.2
2019-12-03T09:10:03,42.805,6.029,-0.036,0.026,-0.016,103.0,115.0,97.0,13.4,1505.3,327.6,-0.7,1.9,2470.274,13.32,0.044,305.8
2019-12-03T09:13:03,42.805,6.029,-0.018,0.041,-0.023,102.0,114.0,99.0,13.4,1505.3,325.4,-0.7,1.8,2470.264,13.32,0.044,336.3
2019-12-03T09:16:03,42.805,6.029,-0.056,0.04,-0.022,102.0,113.0,99.0,13.4,1505.3,327.4,-0.7,1.8,2470.259,13.32,0.068,305.5
2019-12-03T09:19:03,42.805,6.029,-0.028,0.043,0.002,103.0,114.0,100.0,13.4,1505.3,324.9,-0.7,1.8,2470.285,13.33,0.051,326.9
2019-12-03T09:22:03,42.805,6.029,-0.029,0.039,-0.003,103.0,115.0,100.0,13.3,1505.3,325.9,-0.7,1.8,2470.308,13.33,0.048,323.4
2019-12-03T09:25:03,42.805,6.029,-0.05,0.041,0.004,101.0,115.0,98.0,13.4,1505.3,326.9,-0.7,1.8,2470.25,13.33,0.064,309.3
2019-12-03T09:28:03,42.805,6.029,-0.062,0.041,-0.016,100.0,117.0,99.0,13.3,1505.3,323.2,-0.7,1.8,2470.283,13.33,0.074,303.5
2019-12-03T09:31:03,42.805,6.029,-0.069,0.05,-0.035,101.0,116.0,101.0,13.4,1505.3,327.1,-0.7,1.8,2470.304,13.33,0.085,305.9
2019-12-03T09:34:03,42.805,6.029,-0.027,0.048,-0.013,103.0,117.0,98.0,13.4,1505.3,327.0,-0.7,1.8,2470.305,13.33,0.055,330.6
2019-12-03T09:37:03,42.805,6.029,-0.063,0.04,-0.024,101.0,116.0,99.0,13.4,1505.3,327.7,-0.7,1.9,2470.298,13.33,0.074,302.4
2019-12-03T09:40:03,42.805,6.029,-0.02,0.033,-0.004,101.0,113.0,99.0,13.4,1505.3,323.6,-0.7,1.8,2470.33,13.33,0.038,328.8
2019-12-03T09:43:03,42.805,6.029,-0.044,0.034,0.0,102.0,115.0,98.0,13.4,1505.3,326.4,-0.7,1.8,2470.306,13.33,0.055,307.7
2019-12-03T09:46:03,42.805,6.029,-0.009,0.038,-0.004,100.0,117.0,100.0,13.4,1505.3,325.4,-0.7,1.8,2470.276,13.33,0.039,346.7
2019-12-03T09:49:03,42.805,6.029,-0.031,0.03,-0.007,101.0,115.0,100.0,13.4,1505.3,325.7,-0.7,1.8,2470.354,13.33,0.043,314.1
2019-12-03T09:52:03,42.805,6.029,-0.03,0.06,-0.01,101.0,115.0,99.0,13.4,1505.3,324.5,-0.7,1.8,2470.281,13.33,0.067,333.4
2019-12-03T09:55:03,42.805,6.029,-0.012,0.034,0.003,101.0,114.0,99.0,13.4,1505.3,324.3,-0.7,1.8,2470.306,13.33,0.036,340.6